Wind_Speed
2 1 1 2 3 2 1 1 2 4 4 4 5 6 6 5 6 6 6 6 6 6 6 6 5 5 4 4 4 4 4 4 4 4 4 4 5 5 6 5 4 4 4 4 4 4 3 4 4
3 2 2 2 2 2 2 2 2 3 4 4 5 5 5 6 6 6 6 6 6 6 6 6 5 5 5 4 3 3 3 4 4 4 4 4 4 5 5 5 5 4 4 3 4 4 4 3 3
4 3 2 1 2 3 4 3 3 4 4 5 5 5 5 6 6 7 6 6 6 5 5 6 5 5 5 4 4 3 3 3 4 4 4 3 4 4 4 5 4 3 3 3 4 4 4 3 3
5 4 3 3 4 4 4 4 3 4 4 5 5 6 6 6 7 7 6 6 6 5 5 5 5 5 5 4 4 3 3 3 3 4 3 3 3 3 3 3 2 2 2 3 3 3 4 4 4
6 5 4 4 5 5 5 4 3 4 4 5 6 6 6 7 7 7 6 6 6 6 5 5 5 5 5 4 4 4 3 3 3 3 3 3 3 3 3 2 2 1 1 2 3 4 5 6 5
7 6 6 6 7 7 6 5 4 5 4 4 5 6 6 7 7 7 7 6 6 6 5 5 5 5 4 4 4 4 4 3 3 3 4 4 3 3 3 2 1 1 1 2 3 4 5 5 5
8 8 8 8 8 8 6 5 5 4 3 4 5 5 5 6 7 7 7 7 7 6 6 5 5 5 4 4 4 4 4 4 4 3 3 4 3 3 3 1 0 0 1 2 3 3 5 5 5
9 9 9 9 9 9 7 6 5 5 4 5 5 5 5 6 7 7 8 7 6 6 6 6 6 5 4 4 4 4 4 4 4 3 4 4 4 3 3 2 1 2 2 2 3 4 6 6 6
10 10 10 10 10 10 8 7 6 5 5 5 5 6 6 6 7 7 8 7 7 7 7 7 7 6 5 5 5 4 4 5 5 4 4 4 4 4 3 3 2 2 3 3 3 4 5 6 6
10 11 12 12 12 11 9 7 7 6 6 6 6 7 7 7 7 8 8 8 7 7 7 7 7 7 6 6 5 5 5 6 6 6 6 5 5 5 4 3 2 2 3 3 4 4 5 5 6
11 12 13 12 12 11 10 8 8 8 8 8 7 7 8 8 8 8 9 9 9 8 8 8 7 7 7 6 6 6 6 6 7 7 7 6 6 5 5 5 4 3 3 4 5 5 5 6 6
12 13 13 13 13 12 11 11 10 10 10 10 9 8 8 9 9 9 9 9 9 9 9 8 8 8 7 7 7 7 7 7 7 7 7 7 7 7 6 6 5 5 5 5 6 6 7 7 7
13 14 14 14 14 14 13 12 12 12 12 11 10 10 9 10 10 9 9 9 10 10 10 10 9 9 8 8 8 8 8 8 8 8 8 8 8 8 8 7 7 7 6 7 7 7 7 8 9
14 15 15 15 16 15 14 14 15 13 13 11 11 11 11 11 10 10 10 11 11 11 11 10 10 10 9 9 9 9 9 9 9 9 9 9 9 9 9 8 8 8 7 7 8 8 8 8 9
15 15 16 16 16 16 16 15 15 14 14 13 12 12 12 12 11 11 11 12 13 13 12 11 11 11 10 10 9 10 9 9 9 9 9 9 9 9 9 9 8 8 8 8 8 9 9 9 10
15 16 16 17 17 16 16 15 16 15 15 14 14 14 13 13 13 13 13 13 13 13 13 12 11 11 11 11 11 10 10 10 9 9 9 10 10 10 10 10 10 10 9 9 10 10 10 10 10
16 17 17 18 17 17 16 16 16 17 16 16 16 15 15 15 14 14 15 15 14 14 14 13 13 12 12 12 11 10 10 10 10 9 9 10 10 10 10 10 10 10 9 10 10 10 10 11 11
18 19 19 19 19 18 17 18 18 18 18 17 17 15 15 16 16 16 16 17 16 15 15 14 14 13 13 12 11 10 11 10 10 10 10 10 10 10 10 10 11 11 10 11 11 11 11 11 11
19 19 19 20 20 19 19 19 19 19 19 18 18 17 17 17 17 17 18 18 17 16 16 15 14 14 13 13 12 11 12 11 11 11 11 11 11 10 11 11 12 12 11 11 12 12 12 12 12
19 18 19 20 20 20 20 20 20 20 19 19 19 19 19 19 19 19 19 18 17 17 17 16 16 15 14 14 14 13 13 14 14 14 14 13 12 12 12 12 12 12 12 12 12 13 13 12 12
18 18 19 20 20 20 21 20 19 19 19 19 19 20 20 21 21 20 20 19 19 17 17 17 16 16 16 15 16 15 16 15 14 14 14 15 14 13 13 14 14 13 13 13 13 13 13 12 12
18 18 19 19 19 19 20 18 19 19 18 19 20 20 21 21 21 20 20 20 19 18 18 18 17 17 17 17 17 17 17 16 15 15 15 16 16 15 14 15 14 14 14 14 14 13 13 13 13
18 18 18 19 19 19 19 18 18 19 19 19 20 20 20 21 20 19 19 19 19 19 18 18 18 18 18 18 18 17 17 17 17 17 16 16 17 16 16 16 16 15 15 15 15 14 14 15 15
19 18 19 19 19 19 19 19 18 19 19 20 21 20 21 21 20 19 19 19 19 19 19 19 18 19 19 19 18 18 18 18 18 18 18 18 18 18 17 17 17 17 16 16 16 16 15 16 16
18 18 17 17 18 19 20 20 20 20 20 20 21 21 21 21 21 21 20 20 19 19 19 20 19 19 19 19 19 18 19 19 19 19 19 18 18 18 18 18 18 17 17 17 17 17 17 16 16
19 18 17 18 18 19 22 22 21 21 20 20 20 21 21 21 20 20 20 20 19 20 20 20 20 20 20 20 20 20 20 20 19 19 20 20 19 18 19 19 18 18 19 19 19 18 18 17 17
19 19 19 20 21 21 22 24 23 22 21 21 21 20 21 21 20 21 21 21 21 21 21 21 21 21 21 21 21 21 20 20 21 21 21 20 20 20 20 20 20 20 20 20 20 19 19 19 19
20 21 20 20 21 21 21 23 23 23 22 21 21 21 21 21 22 22 22 22 23 23 23 23 23 23 23 22 22 20 20 21 21 21 20 20 20 20 19 19 20 21 21 21 21 21 20 19 20
21 21 22 22 21 21 20 22 24 23 23 23 22 22 22 22 22 22 23 23 24 24 24 24 24 24 24 24 24 22 22 22 21 21 20 20 20 20 20 19 19 19 20 20 20 21 20 21 21
21 22 22 22 22 23 22 24 25 24 24 24 24 23 23 23 23 23 23 24 24 24 24 25 24 25 24 24 24 23 23 23 22 22 22 21 21 21 21 21 20 20 20 20 20 20 20 21 21
Wind_Direction
238 221 171 132 95 108 163 303 6 14 15 22 27 29 31 35 34 28 21 20 15 13 20 21 19 21 22 19 24 35 39 38 35 35 41 42 46 51 56 61 76 89 104 118 132 143 146 130 145
244 234 199 158 117 166 242 285 327 355 2 10 17 22 23 26 30 28 23 22 15 16 21 19 16 20 19 13 14 26 35 33 31 37 42 44 51 56 64 68 81 94 104 117 140 149 154 156 167
239 233 223 201 200 203 244 274 298 330 348 3 11 17 19 20 21 19 21 16 10 10 13 10 7 7 6 8 12 24 33 29 25 28 35 42 54 54 62 73 79 88 111 123 142 153 161 165 159
238 234 240 241 242 243 252 271 287 309 337 356 3 10 16 16 15 11 14 9 7 7 3 358 355 354 359 1 6 19 29 26 20 21 26 32 43 41 46 67 84 97 117 127 146 163 175 174 173
236 234 247 252 254 258 262 274 283 300 328 341 351 1 10 12 10 9 10 6 360 0 353 348 350 350 353 356 4 13 18 19 21 19 16 20 23 29 30 45 81 110 139 140 137 162 178 178 178
235 236 239 244 258 262 264 267 277 298 320 329 344 355 2 7 6 5 0 358 355 351 347 345 346 345 346 349 356 7 10 9 9 14 19 16 13 16 9 22 82 94 133 171 153 162 172 184 190
233 233 233 237 253 260 262 270 279 294 305 314 329 341 351 360 359 359 355 350 352 347 345 341 340 338 335 339 344 353 358 352 350 2 8 7 6 1 351 355 133 168 130 168 176 187 189 189 194
236 235 237 240 247 255 260 267 274 280 294 304 310 317 331 348 351 350 348 344 344 344 341 339 332 329 324 324 325 333 338 332 331 344 347 345 341 342 340 334 282 232 219 199 190 187 193 196 197
238 235 237 238 240 249 258 262 269 279 287 291 298 311 319 328 337 336 335 333 331 333 336 338 330 323 316 313 314 314 319 319 316 319 320 321 321 319 320 320 288 245 223 204 195 198 201 204 208
240 236 237 240 241 248 255 259 268 275 285 291 297 302 310 317 322 326 323 323 324 323 327 334 332 324 315 311 310 309 310 311 308 305 303 303 305 302 301 300 275 253 235 220 214 213 208 210 214
242 239 241 242 245 248 252 257 263 270 279 284 292 297 303 306 310 314 316 316 316 317 319 322 325 322 316 308 304 306 307 306 301 299 297 295 293 290 290 290 284 265 253 246 238 233 227 223 222
244 243 244 244 246 248 251 254 261 268 275 279 283 290 293 294 301 305 305 307 305 305 307 312 317 314 309 303 298 298 300 300 298 293 289 290 285 280 282 281 278 267 252 247 246 240 239 235 230
244 245 248 249 249 247 251 258 262 266 273 278 280 283 286 289 294 298 296 297 297 299 303 307 309 307 304 300 297 298 301 298 290 288 284 282 280 277 278 277 269 262 256 252 250 245 242 239 235
245 247 248 250 252 252 255 261 266 266 271 274 276 278 280 285 287 289 290 290 292 291 294 299 305 303 298 297 298 298 294 295 293 286 281 279 277 275 275 276 271 261 255 252 250 246 245 245 243
247 248 250 251 252 255 258 263 266 267 271 270 273 275 276 278 279 282 287 289 290 289 291 297 302 303 298 295 295 296 292 290 290 285 282 278 273 273 276 276 271 263 253 249 251 250 248 248 246
249 250 253 256 255 258 257 259 260 265 268 270 273 273 273 273 274 279 283 287 290 291 292 296 299 303 300 295 290 291 291 291 288 284 281 276 271 268 271 271 268 263 256 252 250 252 249 249 248
250 250 252 257 256 256 256 256 259 265 267 270 273 272 271 274 274 276 280 284 287 289 291 293 294 296 293 291 286 285 287 289 287 285 283 278 273 269 268 266 264 262 258 256 252 252 250 248 248
249 250 252 255 257 256 257 257 260 263 265 268 271 272 272 273 274 277 279 282 284 286 287 289 289 288 287 286 280 281 284 287 286 284 282 275 271 269 266 266 264 261 259 258 255 256 251 249 248
250 252 256 257 258 258 258 258 259 262 264 266 268 271 272 275 276 277 279 280 281 283 283 282 281 281 283 284 280 278 282 283 284 282 280 276 275 275 272 268 265 261 259 258 256 255 250 252 250
252 254 255 256 256 258 260 260 261 263 264 265 265 267 270 272 275 276 278 279 281 281 280 280 277 274 277 280 282 282 281 281 282 281 275 274 276 275 272 268 264 260 259 259 256 253 253 253 247
254 254 254 256 259 260 263 265 267 266 267 267 267 269 272 273 274 273 274 276 278 279 278 276 275 272 271 274 279 280 281 281 284 283 275 271 273 272 271 265 263 261 260 260 257 251 250 249 248
256 254 254 257 260 263 264 268 268 266 268 268 269 270 271 272 273 273 273 274 276 275 273 272 271 270 270 272 276 277 280 279 280 281 276 274 271 268 266 265 260 259 259 259 256 250 249 248 247
255 257 257 259 260 262 267 267 268 266 267 269 270 270 270 271 271 270 271 274 274 274 272 271 269 269 270 271 272 275 277 276 277 278 277 275 270 266 264 264 259 259 260 258 256 253 251 249 248
256 259 263 264 265 265 267 268 268 268 267 268 269 270 271 270 269 268 270 272 273 273 272 270 269 269 270 271 271 273 274 274 275 277 276 274 269 264 263 264 262 261 262 260 256 254 253 251 249
257 259 265 269 269 270 269 268 266 267 268 268 268 268 269 268 267 267 267 269 269 270 271 269 268 269 272 273 272 274 274 272 273 275 275 274 270 264 262 261 261 261 260 257 256 253 253 252 250
256 255 255 259 264 268 272 270 270 269 268 268 266 266 267 266 266 268 268 267 267 267 268 267 266 268 271 271 270 272 272 272 271 272 272 272 269 265 262 261 259 259 258 257 255 255 253 250 250
257 257 257 261 264 265 268 271 272 270 269 269 267 266 266 265 265 268 268 267 266 266 266 265 264 266 269 269 266 265 268 270 270 271 272 270 267 266 264 261 261 261 260 257 256 256 255 252 252
256 258 260 261 264 267 270 274 273 272 270 268 267 266 265 264 265 266 266 266 267 267 266 266 265 266 266 263 263 264 266 270 270 270 268 267 267 266 267 267 263 262 261 258 256 255 254 253 255
261 260 261 262 261 264 268 270 272 273 272 270 268 266 265 265 266 267 267 267 267 266 266 265 264 264 265 264 264 264 265 269 270 267 266 267 267 267 267 268 268 266 263 260 257 255 254 254 254
261 260 263 265 267 267 267 269 271 272 273 272 269 267 265 265 267 268 267 267 266 265 265 264 264 263 263 264 266 266 265 267 267 265 264 266 268 267 266 266 266 265 263 260 258 256 256 255 255
Height
5905 5905 5906 5907 5909 5911 5910 5909 5908 5907 5906 5905 5904 5902 5902 5901 5901 5902 5898 5896 5895 5894 5893 5892 5891 5890 5889 5888 5887 5886 5885 5884 5883 5882 5881 5880 5879 5877 5875 5874 5873 5873 5873 5873 5874 5874 5875 5875 5875
5904 5905 5907 5908 5910 5911 5910 5908 5907 5906 5905 5904 5903 5902 5901 5900 5899 5898 5896 5896 5895 5894 5893 5892 5891 5890 5889 5888 5887 5886 5885 5884 5883 5882 5881 5880 5879 5878 5876 5874 5874 5874 5874 5874 5874 5874 5875 5875 5875
5904 5905 5907 5908 5909 5910 5910 5908 5907 5906 5904 5903 5902 5902 5901 5900 5899 5898 5896 5895 5895 5893 5892 5891 5890 5889 5888 5887 5886 5885 5885 5884 5883 5882 5880 5880 5879 5878 5877 5875 5875 5875 5874 5874 5874 5875 5875 5875 5875
5903 5905 5907 5909 5908 5908 5907 5907 5906 5905 5904 5902 5902 5901 5900 5899 5898 5897 5896 5895 5894 5893 5892 5891 5890 5889 5888 5887 5886 5885 5884 5883 5882 5881 5880 5879 5878 5878 5877 5876 5875 5875 5875 5874 5874 5875 5875 5875 5875
5902 5904 5907 5907 5906 5906 5906 5905 5905 5904 5903 5902 5901 5900 5899 5899 5898 5897 5896 5895 5893 5892 5891 5890 5890 5889 5888 5887 5885 5884 5884 5883 5882 5881 5880 5879 5878 5877 5877 5876 5876 5875 5875 5874 5874 5874 5874 5875 5875
5902 5904 5906 5906 5905 5905 5905 5904 5904 5903 5902 5901 5901 5900 5899 5898 5897 5896 5895 5894 5893 5892 5891 5890 5889 5888 5887 5886 5885 5884 5883 5882 5881 5880 5880 5879 5878 5877 5877 5876 5875 5875 5875 5874 5874 5874 5874 5875 5876
5901 5902 5904 5904 5904 5903 5903 5903 5903 5902 5901 5901 5900 5899 5898 5897 5897 5896 5895 5894 5892 5891 5890 5889 5888 5887 5886 5885 5885 5884 5883 5882 5881 5880 5879 5879 5878 5877 5876 5875 5875 5875 5874 5874 5874 5874 5874 5875 5876
5898 5901 5902 5902 5902 5902 5901 5901 5901 5901 5900 5900 5899 5899 5898 5897 5896 5895 5894 5893 5892 5891 5890 5889 5888 5886 5885 5884 5884 5883 5882 5881 5880 5880 5879 5878 5877 5876 5875 5875 5874 5874 5874 5874 5874 5873 5873 5875 5876
5896 5900 5900 5900 5900 5900 5899 5899 5900 5899 5899 5898 5898 5897 5897 5896 5895 5894 5893 5892 5891 5890 5889 5888 5887 5886 5885 5884 5883 5882 5881 5880 5879 5878 5878 5877 5876 5875 5875 5874 5874 5874 5874 5874 5874 5873 5874 5875 5875
5894 5897 5897 5897 5898 5898 5897 5898 5898 5898 5898 5897 5897 5896 5895 5895 5894 5893 5892 5891 5890 5889 5888 5887 5886 5885 5884 5883 5881 5880 5880 5879 5878 5877 5876 5875 5875 5874 5873 5873 5873 5873 5873 5873 5873 5873 5873 5874 5874
5892 5893 5893 5894 5895 5895 5895 5896 5896 5896 5896 5896 5895 5894 5894 5893 5892 5892 5891 5890 5889 5888 5886 5885 5884 5883 5882 5881 5880 5879 5878 5877 5876 5876 5875 5874 5873 5873 5872 5872 5871 5871 5871 5872 5872 5872 5872 5873 5873
5889 5890 5890 5891 5892 5892 5893 5893 5894 5894 5894 5894 5893 5892 5892 5891 5891 5890 5889 5888 5887 5886 5885 5883 5883 5882 5881 5879 5878 5877 5876 5875 5875 5874 5873 5873 5872 5871 5871 5870 5870 5870 5870 5870 5870 5871 5871 5871 5872
5887 5887 5888 5888 5889 5890 5890 5891 5891 5892 5891 5891 5891 5890 5890 5889 5889 5888 5887 5886 5885 5884 5883 5882 5881 5880 5879 5878 5876 5875 5874 5874 5873 5872 5871 5871 5870 5870 5869 5869 5869 5868 5868 5868 5869 5869 5869 5870 5870
5884 5884 5885 5885 5886 5887 5887 5888 5888 5888 5888 5889 5888 5888 5888 5887 5886 5885 5885 5884 5883 5882 5881 5880 5879 5878 5877 5875 5874 5873 5872 5871 5870 5870 5869 5868 5867 5867 5867 5867 5866 5866 5866 5866 5867 5867 5867 5868 5868
5881 5882 5882 5882 5883 5884 5885 5886 5885 5885 5884 5885 5885 5885 5885 5884 5884 5883 5882 5881 5880 5879 5878 5877 5876 5875 5874 5873 5872 5870 5869 5868 5868 5867 5866 5866 5865 5865 5864 5864 5864 5864 5864 5864 5864 5865 5865 5866 5866
5878 5879 5880 5880 5880 5880 5883 5883 5883 5882 5882 5882 5882 5882 5882 5881 5881 5880 5879 5878 5877 5877 5875 5875 5874 5873 5872 5871 5869 5868 5867 5866 5865 5865 5864 5863 5863 5862 5862 5862 5862 5861 5862 5862 5862 5863 5863 5863 5864
5875 5876 5876 5876 5876 5877 5879 5879 5878 5878 5878 5879 5879 5879 5878 5878 5877 5877 5876 5875 5874 5873 5872 5872 5871 5870 5869 5868 5867 5865 5864 5863 5863 5862 5861 5861 5860 5859 5859 5859 5860 5860 5860 5860 5860 5860 5860 5861 5861
5872 5872 5872 5873 5872 5873 5874 5875 5875 5875 5875 5875 5875 5875 5875 5874 5874 5873 5872 5871 5871 5870 5869 5868 5867 5867 5866 5865 5864 5863 5862 5861 5860 5860 5859 5858 5858 5857 5856 5856 5856 5857 5857 5857 5858 5858 5858 5858 5858
5867 5868 5868 5868 5868 5869 5870 5870 5870 5870 5871 5871 5871 5871 5871 5870 5870 5869 5868 5867 5867 5866 5865 5865 5864 5863 5863 5862 5861 5860 5859 5858 5858 5857 5856 5856 5855 5854 5854 5854 5854 5854 5854 5855 5855 5855 5855 5855 5855
5862 5863 5864 5864 5864 5865 5865 5866 5866 5866 5866 5866 5866 5866 5866 5866 5865 5865 5864 5863 5862 5862 5861 5860 5860 5860 5859 5859 5858 5857 5856 5855 5855 5854 5853 5853 5852 5852 5851 5851 5851 5851 5851 5852 5852 5852 5852 5852 5853
5858 5859 5860 5860 5860 5860 5861 5862 5861 5861 5861 5861 5861 5862 5862 5861 5861 5860 5859 5859 5858 5857 5857 5856 5856 5855 5855 5855 5854 5854 5853 5852 5852 5851 5850 5849 5849 5849 5848 5848 5848 5848 5848 5848 5849 5849 5849 5850 5850
5853 5854 5854 5855 5856 5856 5857 5858 5857 5856 5856 5857 5857 5857 5856 5856 5856 5855 5854 5854 5853 5853 5852 5852 5851 5851 5851 5850 5850 5850 5849 5848 5848 5847 5846 5845 5845 5845 5845 5844 5844 5844 5844 5845 5845 5845 5846 5847 5847
5849 5849 5850 5850 5851 5852 5852 5853 5854 5852 5852 5852 5852 5851 5851 5851 5850 5850 5849 5849 5848 5848 5847 5847 5846 5846 5846 5846 5846 5845 5845 5844 5843 5843 5842 5841 5841 5841 5841 5841 5841 5841 5841 5841 5841 5841 5842 5843 5844
5844 5845 5845 5846 5846 5847 5848 5848 5849 5847 5847 5847 5846 5846 5846 5845 5845 5844 5844 5844 5843 5842 5842 5842 5841 5841 5841 5841 5841 5841 5840 5840 5839 5838 5838 5837 5836 5836 5837 5837 5837 5837 5837 5837 5837 5838 5838 5839 5840
5839 5841 5843 5843 5843 5844 5843 5842 5843 5841 5841 5841 5841 5840 5840 5839 5839 5839 5838 5838 5838 5837 5837 5837 5836 5836 5836 5836 5836 5835 5835 5835 5834 5834 5833 5833 5832 5832 5832 5832 5832 5832 5832 5833 5833 5833 5834 5835 5835
5834 5836 5839 5840 5840 5840 5837 5836 5836 5835 5835 5835 5835 5834 5834 5833 5833 5833 5832 5832 5832 5832 5832 5831 5831 5831 5831 5830 5830 5830 5830 5829 5829 5829 5828 5828 5828 5828 5827 5827 5827 5827 5828 5828 5828 5828 5829 5830 5831
5829 5830 5832 5832 5832 5832 5832 5830 5830 5829 5829 5828 5828 5828 5828 5827 5827 5827 5826 5826 5826 5826 5826 5825 5825 5825 5825 5825 5825 5825 5825 5824 5824 5823 5823 5823 5822 5822 5822 5822 5822 5822 5822 5823 5823 5824 5824 5825 5826
5824 5824 5825 5826 5825 5826 5826 5825 5824 5823 5822 5822 5822 5821 5821 5821 5821 5820 5820 5820 5820 5820 5820 5819 5819 5819 5819 5818 5819 5819 5819 5819 5819 5818 5818 5817 5817 5817 5817 5817 5817 5817 5817 5817 5818 5818 5819 5820 5821
5818 5818 5818 5819 5819 5820 5821 5821 5818 5816 5816 5815 5815 5814 5814 5814 5814 5814 5814 5813 5813 5813 5813 5813 5813 5813 5812 5812 5813 5812 5813 5813 5813 5812 5812 5812 5812 5812 5812 5812 5811 5811 5811 5811 5812 5813 5814 5815 5815
5811 5812 5812 5813 5812 5812 5813 5815 5811 5809 5808 5808 5808 5807 5807 5807 5807 5807 5807 5806 5806 5806 5806 5806 5806 5806 5806 5806 5806 5806 5806 5806 5806 5807 5807 5807 5806 5806 5806 5806 5806 5806 5806 5806 5806 5807 5808 5809 5809